EW3708 Weather Reports


time (UTC)temp
C
wind
direction
speed
KPH
gust
KPH
rain 1hr
cm
rain 24hr
cm
rain mn
cm
humidity
%
barometer
mb
20260905164514 22 322 1.6 4.8 0.00 0.00 0.00 67 1010.7
20260905163013 22 293 3.2 8.0 0.00 0.00 0.00 62 1010.9
20260905161511 21 220 1.6 6.4 0.00 0.00 0.00 66 1011.1
20260905160013 21 324 0.0 6.4 0.00 0.00 0.00 72 1011.1
20260905154504 20 236 1.6 6.4 0.00 0.00 0.00 70 1011.0
20260905153003 20 279 1.6 6.4 0.00 0.00 0.00 73 1010.9
20260905151502 20 268 1.6 6.4 0.00 0.00 0.00 72 1010.9
20260905150051 20 305 1.6 6.4 0.00 0.00 0.00 74 1010.9
20260905144552 19 275 1.6 11.3 0.00 0.00 0.00 74 1010.9
20260905143047 19 77 1.6 11.3 0.00 0.00 0.00 77 1010.8
20260905141607 18 308 1.6 6.4 0.00 0.00 0.00 77 1010.8
20260905140054 18 297 3.2 11.3 0.00 0.00 0.00 77 1010.9
20260905134547 18 331 1.6 4.8 0.00 0.00 0.00 80 1010.7
20260905133051 18 167 3.2 6.4 0.00 0.00 0.00 80 1010.7
20260905131552 17 278 0.0 4.8 0.00 0.00 0.00 84 1010.6
20260905130037 17 261 0.0 4.8 0.00 0.00 0.00 87 1010.5
20260905124536 16 197 1.6 4.8 0.00 0.00 0.00 88 1010.6
20260905123034 16 268 1.6 4.8 0.00 0.00 0.00 92 1010.8
20260905121534 16 251 0.0 3.2 0.00 0.00 0.00 93 1010.8
20260905120037 15 251 0.0 1.6 0.00 0.00 0.00 92 1010.8
20260905114555 15 252 0.0 0.0 0.00 0.00 0.00 92 1010.6
20260905113031 15 252 0.0 1.6 0.00 0.00 0.00 91 1010.5
20260905111531 15 252 0.0 0.0 0.00 0.00 0.00 91 1010.4
20260905110032 16 252 0.0 1.6 0.00 0.00 0.00 91 1010.3
20260905104533 16 252 0.0 3.2 0.00 0.00 0.00 91 1010.1
20260905103034 15 252 0.0 3.2 0.00 0.00 0.00 91 1009.8
20260905101529 15 252 1.6 3.2 0.00 0.00 0.00 92 1009.6
20260905100029 15 252 0.0 0.0 0.00 0.00 0.00 91 1009.6
20260905094525 16 252 0.0 0.0 0.00 0.00 0.00 91 1009.4
20260905093029 16 252 0.0 0.0 0.00 0.00 0.00 91 1009.4
20260905091523 16 252 0.0 1.6 0.00 0.00 0.00 91 1009.3
20260905090022 16 252 0.0 0.0 0.00 0.00 0.00 91 1009.3
20260905084519 16 252 0.0 0.0 0.00 0.00 0.00 90 1009.4
20260905083018 16 252 0.0 0.0 0.00 0.00 0.00 91 1009.4
20260905081517 17 252 0.0 0.0 0.00 0.00 0.00 91 1009.6
20260905080021 17 252 0.0 0.0 0.00 0.00 0.00 91 1009.7
20260905074517 17 252 0.0 0.0 0.00 0.00 0.00 91 1009.8
20260905073012 17 252 0.0 0.0 0.00 0.00 0.00 91 1009.7
20260905071511 17 252 0.0 0.0 0.00 0.00 0.00 90 1009.8
20260905070008 17 252 0.0 0.0 0.00 0.00 0.00 91 1009.9
20260905064507 17 252 0.0 0.0 0.00 0.00 0.00 91 1009.9
20260905063005 17 252 0.0 0.0 0.00 0.00 0.00 91 1010.0
20260905061502 17 252 0.0 0.0 0.00 0.00 0.00 91 1010.2
20260905060006 17 252 0.0 0.0 0.00 0.00 0.00 91 1010.2
20260905054604 17 252 0.0 0.0 0.00 0.00 0.00 90 1010.4
20260905053059 18 252 0.0 0.0 0.00 0.00 0.00 90 1010.6
20260905051609 18 252 0.0 0.0 0.00 0.00 0.00 91 1010.7
20260905050105 18 252 0.0 0.0 0.00 0.00 0.00 91 1011.0
20260905044558 18 252 0.0 0.0 0.00 0.08 0.00 90 1011.0
20260905043052 18 252 0.0 0.0 0.00 0.08 0.00 90 1010.9
20260905041552 18 252 0.0 0.0 0.00 0.08 0.00 90 1011.0
20260905040055 18 252 0.0 0.0 0.00 0.08 0.00 90 1010.9
20260905034605 18 252 0.0 1.6 0.00 0.15 0.08 90 1010.8
20260905033102 18 252 0.0 0.0 0.00 0.15 0.08 89 1010.5
20260905031548 18 252 0.0 1.6 0.00 0.15 0.08 89 1010.7
20260905030047 18 252 0.0 0.0 0.00 0.15 0.08 89 1010.8
20260905024550 18 252 0.0 0.0 0.00 0.15 0.08 89 1010.7
20260905023120 18 252 0.0 0.0 0.00 0.15 0.08 89 1010.8
20260905021545 18 252 0.0 0.0 0.00 0.15 0.08 88 1010.8
20260905020044 18 252 0.0 0.0 0.00 0.15 0.08 87 1010.8
20260905014541 18 252 0.0 1.6 0.00 0.53 0.08 86 1010.8
20260905013040 18 252 0.0 1.6 0.00 0.53 0.08 85 1010.7
20260905011546 19 252 0.0 0.0 0.00 0.53 0.08 84 1010.8
20260905010042 19 252 0.0 0.0 0.00 0.53 0.08 85 1010.7
20260905004536 20 252 0.0 0.0 0.00 0.53 0.08 84 1010.9
20260905003036 20 252 0.0 0.0 0.00 0.53 0.08 85 1010.6
20260905001536 20 252 0.0 0.0 0.00 0.53 0.08 84 1010.5
20260905000035 20 252 0.0 1.6 0.00 0.53 0.08 82 1010.3
20260904234536 20 252 0.0 0.0 0.00 0.53 0.08 81 1010.4
20260904233034 21 252 0.0 0.0 0.00 0.53 0.08 79 1010.3
20260904231535 21 252 0.0 0.0 0.00 0.53 0.08 79 1010.1
20260904230033 21 252 0.0 0.0 0.00 0.53 0.08 78 1009.9
20260904224532 22 252 0.0 1.6 0.00 0.53 0.08 75 1010.0
20260904223034 22 252 0.0 1.6 0.00 0.53 0.08 74 1010.2
20260904221531 22 252 0.0 3.2 0.00 0.53 0.08 74 1010.5
20260904220058 22 252 0.0 3.2 0.00 0.53 0.08 72 1010.6
20260904214530 23 252 0.0 3.2 0.00 0.53 0.08 72 1010.8
20260904213034 23 251 0.0 4.8 0.00 0.53 0.08 73 1010.6
20260904211529 23 214 0.0 4.8 0.00 0.53 0.08 71 1010.1
20260904210035 23 209 0.0 3.2 0.00 0.53 0.08 75 1010.1
20260904204527 23 282 0.0 0.0 0.00 0.53 0.08 72 1010.1
20260904203035 23 282 0.0 4.8 0.00 0.53 0.08 72 1010.2
20260904201526 24 282 1.6 8.0 0.00 0.53 0.08 69 1010.3
20260904200034 24 188 1.6 4.8 0.00 0.53 0.08 69 1010.6
20260904194543 24 226 1.6 6.4 0.00 0.53 0.08 66 1010.9
20260904193023 25 304 1.6 6.4 0.00 0.53 0.08 68 1010.9
20260904191535 25 302 1.6 6.4 0.00 0.53 0.08 67 1010.9
20260904190021 25 310 3.2 6.4 0.00 0.53 0.08 65 1011.0
20260904184519 25 310 1.6 6.4 0.00 0.53 0.08 67 1011.1
20260904183016 25 261 1.6 6.4 0.00 0.53 0.08 70 1011.4
20260904181515 24 269 1.6 4.8 0.00 0.53 0.08 73 1011.4
20260904180013 24 286 3.2 6.4 0.00 0.53 0.08 71 1011.4
20260904174521 24 319 1.6 4.8 0.00 0.53 0.08 68 1011.4
20260904173012 24 167 1.6 4.8 0.00 0.53 0.08 73 1011.4
20260904171511 23 289 0.0 6.4 0.00 0.53 0.08 72 1011.4
20260904170010 24 329 3.2 6.4 0.00 0.53 0.08 73 1011.5